(277829) = 2006 HL25

Discovered at Kitt Peak on 2006-04-20 by Spacewatch.

Orbit

Orbit type: Main Belt

Note: WebGL enabled browser required.

epoch2024-03-31.0
epoch JD2460400.5
perihelion date2020-06-24.69031
perihelion JD2459025.19032
argument of perihelion (°)59.36647
ascending node (°)199.92636
inclination (°)7.96122
eccentricity0.2017961
perihelion distance (AU)2.2174584
Tisserand w.r.t. Jupiter3.3
ΔV w.r.t. Earth (km/sec)9.7
semimajor axis (AU)2.7780602
mean anomaly (°)292.74676
mean daily motion (°/day)0.21285880
aphelion distance (AU)3.339
period (years)4.63
P-vector [x]-0.18861580
P-vector [y]-0.94175990
P-vector [z]-0.27841045
Q-vector [x]0.98091585
Q-vector [y]-0.19429503
Q-vector [z]-0.00731640
absolute magnitude16.53
phase slope0.15
uncertainty0
referenceE2024-GI3
observations used402
oppositions14
arc length (days)7914
first opposition used2002
last opposition used2024
residual rms (arc-secs)0.79
perturbers coarse indicatorM-v
perturbers precise indicator003Ek
first observation date used2002-08-12.0
last observation date used2024-04-12.0
computer nameMPCLINUX
Minimum Orbit Intersection Distances (in AU)
for orbit epoch: 2460400.5, reference: E2024-GI3
Mercury1.75999
Venus1.49897
Earth1.21529
Mars0.72439
Jupiter1.75343
Saturn5.73461
Uranus15.5274
Neptune26.5735

Observations

406 total observations over interval: 2002 08 12.30412 – 2024 03 01.430116
These data are available for download (format description).

Date (UT) J2000 RA J2000 Dec Magn Location Ref
2002 08 12.30412 22 28 45.31 +01 06 12.3 19.5   704 – Lincoln Laboratory ETS, New Mexico MPS 172096
2002 08 12.33413 22 28 44.01 +01 06 01.4 20.2   704 – Lincoln Laboratory ETS, New Mexico MPS 172096
2002 08 12.36404 22 28 42.67 +01 05 51.1 20.2   704 – Lincoln Laboratory ETS, New Mexico MPS 172096
2002 08 16.45229 22 25 43.98 +00 42 37.1 20.1   644 – Palomar Mountain/NEAT MPS 172096
2002 08 16.46267 22 25 43.44 +00 42 33.6 20.6   644 – Palomar Mountain/NEAT MPS 172096
2002 08 16.47310 22 25 42.99 +00 42 29.7 20.1   644 – Palomar Mountain/NEAT MPS 172096
2006 03 05.42095 15 35 39.15 -17 12 30.7 20.7 V G96 – Mt. Lemmon Survey MPS 172096
2006 03 05.42594 15 35 39.40 -17 12 30.4 21.4 V G96 – Mt. Lemmon Survey MPS 172096
2006 03 05.43115 15 35 39.69 -17 12 29.7 21.4 V G96 – Mt. Lemmon Survey MPS 172096
2006 03 05.43619 15 35 39.94 -17 12 29.7 20.6 V G96 – Mt. Lemmon Survey MPS 172096
2006 04 20.32540 15 47 32.16 -13 58 36.6 20.1 V 691 – Steward Observatory, Kitt Peak-Spacewatch MPS 169988
2006 04 20.34272 15 47 31.71 -13 58 29.4 19.8 V 691 – Steward Observatory, Kitt Peak-Spacewatch MPS 169988
2006 04 20.36003 15 47 31.26 -13 58 21.8 19.9 V 691 – Steward Observatory, Kitt Peak-Spacewatch MPS 169988
2006 04 24.32442 15 45 46.11 -13 29 53.5 19.5 V 691 – Steward Observatory, Kitt Peak-Spacewatch MPS 169988
2006 04 24.34176 15 45 45.54 -13 29 45.7 19.7 V 691 – Steward Observatory, Kitt Peak-Spacewatch MPS 169988
2006 04 24.35852 15 45 45.08 -13 29 38.4 19.2   704 – Lincoln Laboratory ETS, New Mexico MPS 169988
2006 04 24.35909 15 45 44.99 -13 29 38.0 19.7 V 691 – Steward Observatory, Kitt Peak-Spacewatch MPS 169988
2006 04 24.36925 15 45 44.64 -13 29 34.6 19.5   704 – Lincoln Laboratory ETS, New Mexico MPS 169988
2006 04 24.39076 15 45 43.95 -13 29 24.3 19.4   704 – Lincoln Laboratory ETS, New Mexico MPS 169988
2006 04 24.40157 15 45 43.57 -13 29 21.4 19.8   704 – Lincoln Laboratory ETS, New Mexico MPS 169988
2006 04 26.40302 15 44 41.59 -13 14 31.7 19.9 V 691 – Steward Observatory, Kitt Peak-Spacewatch MPS 169988
2006 04 26.42372 15 44 40.87 -13 14 22.5 19.8 V 691 – Steward Observatory, Kitt Peak-Spacewatch MPS 169988
2006 04 26.44099 15 44 40.27 -13 14 14.7 19.9 V 691 – Steward Observatory, Kitt Peak-Spacewatch MPS 169988
2006 04 30.35956 15 42 23.76 -12 44 44.7 19.6 V 691 – Steward Observatory, Kitt Peak-Spacewatch MPS 170898
2006 04 30.37690 15 42 23.07 -12 44 36.9 19.6 V 691 – Steward Observatory, Kitt Peak-Spacewatch MPS 170898
2006 04 30.39424 15 42 22.38 -12 44 28.7 19.7 V 691 – Steward Observatory, Kitt Peak-Spacewatch MPS 170898
2006 05 04.35730 15 39 46.87 -12 14 14.9 19.5 V 691 – Steward Observatory, Kitt Peak-Spacewatch MPS 170898
2006 05 04.37466 15 39 46.11 -12 14 07.0 19.6 V 691 – Steward Observatory, Kitt Peak-Spacewatch MPS 170898
2006 05 04.39202 15 39 45.34 -12 13 59.0 19.7 V 691 – Steward Observatory, Kitt Peak-Spacewatch MPS 170898
2006 05 22.24221 15 26 22.05 -10 05 07.9   691 – Steward Observatory, Kitt Peak-Spacewatch MPS 172096
2006 05 22.25954 15 26 21.24 -10 05 01.4   691 – Steward Observatory, Kitt Peak-Spacewatch MPS 172096
2006 05 22.27690 15 26 20.42 -10 04 54.6   691 – Steward Observatory, Kitt Peak-Spacewatch MPS 172096
2006 05 30.24332 15 20 41.11 -09 18 36.0 19.0 R 699 – Lowell Observatory-LONEOS MPS 172896
2006 05 30.26886 15 20 39.98 -09 18 27.5   699 – Lowell Observatory-LONEOS MPS 172896
2006 05 30.29440 15 20 38.91 -09 18 20.5   699 – Lowell Observatory-LONEOS MPS 172896
2006 05 30.31999 15 20 37.77 -09 18 12.2   699 – Lowell Observatory-LONEOS MPS 172896
2006 06 16.16805 15 12 33.91 -08 19 13.9 20.0 V 691 – Steward Observatory, Kitt Peak-Spacewatch MPS 173941
2006 06 16.19305 15 12 33.44 -08 19 11.2 19.9 V 691 – Steward Observatory, Kitt Peak-Spacewatch MPS 173941
2006 06 16.21448 15 12 33.01 -08 19 09.6 20.9 V 691 – Steward Observatory, Kitt Peak-Spacewatch MPS 173941
2007 09 14.31836 01 05 26.77 +09 27 44.6 20.9 V G96 – Mt. Lemmon Survey MPS 286927
2007 09 14.32410 01 05 26.55 +09 27 42.1 21.4 V G96 – Mt. Lemmon Survey MPS 286927
2007 09 14.33500 01 05 26.08 +09 27 38.7 20.7 V G96 – Mt. Lemmon Survey MPS 286927
2007 09 14.34073 01 05 25.90 +09 27 36.3 20.5 V G96 – Mt. Lemmon Survey MPS 286927
2007 10 10.29873 00 46 05.59 +06 23 58.7 20.2 V G96 – Mt. Lemmon Survey MPS 223478
2007 10 10.30581 00 46 05.23 +06 23 55.6 20.4 V G96 – Mt. Lemmon Survey MPS 223478
2007 10 10.31287 00 46 04.90 +06 23 52.6 19.8 V G96 – Mt. Lemmon Survey MPS 223478
2007 10 10.31994 00 46 04.54 +06 23 49.1 20.4 V G96 – Mt. Lemmon Survey MPS 223478
2007 10 19.26991 00 39 24.66 +05 17 45.0 20.8 V G96 – Mt. Lemmon Survey MPS 223478
2007 10 19.27648 00 39 24.33 +05 17 41.9 20.6 V G96 – Mt. Lemmon Survey MPS 223478
2007 10 19.28314 00 39 24.08 +05 17 39.6 20.8 V G96 – Mt. Lemmon Survey MPS 223478
2007 10 19.28976 00 39 23.79 +05 17 36.6 21.0 V G96 – Mt. Lemmon Survey MPS 223478
2007 11 17.13711 00 26 20.86 +02 43 25.2 21.6 V G96 – Mt. Lemmon Survey MPS 228297
2007 11 17.14385 00 26 20.79 +02 43 23.4 21.6 V G96 – Mt. Lemmon Survey MPS 228297
2007 11 17.15069 00 26 20.79 +02 43 21.8 20.2 V G96 – Mt. Lemmon Survey MPS 228297
2007 11 17.15745 00 26 20.68 +02 43 20.7 22.0 V G96 – Mt. Lemmon Survey MPS 228297
2010 02 15.380954 10 13 15.643 +01 11 55.53 20.94 g F51 – Pan-STARRS 1, Haleakala MPS 316754
2010 02 15.390038 10 13 15.183 +01 11 58.53 20.87 g F51 – Pan-STARRS 1, Haleakala MPS 316754
2010 02 20.379300 10 09 07.537 +01 41 24.80 20.42 r F51 – Pan-STARRS 1, Haleakala MPS 316754
2010 02 20.388545 10 09 07.068 +01 41 28.12 20.40 r F51 – Pan-STARRS 1, Haleakala MPS 316754
2010 02 24.346938 10 05 48.396 +02 06 41.53 20.24 i F51 – Pan-STARRS 1, Haleakala MPS 316754
2010 02 24.356311 10 05 47.920 +02 06 45.30 20.39 i F51 – Pan-STARRS 1, Haleakala MPS 316754
2011 05 12.44281 20 12 34.84 -09 30 57.3 20.3 V G96 – Mt. Lemmon Survey MPS 382175
2011 05 12.44866 20 12 35.10 -09 30 54.5 20.3 V G96 – Mt. Lemmon Survey MPS 382175
2011 05 12.45448 20 12 35.35 -09 30 52.2 20.1 V G96 – Mt. Lemmon Survey MPS 382175
2011 05 13.45478 20 13 18.12 -09 23 45.0 20.2 V G96 – Mt. Lemmon Survey MPS 382175
2011 05 13.46005 20 13 18.40 -09 23 42.2 20.0 V G96 – Mt. Lemmon Survey MPS 382175
2011 05 13.47064 20 13 18.76 -09 23 37.8 20.3 V G96 – Mt. Lemmon Survey MPS 382175
2011 06 26.41294 20 17 35.92 -05 52 59.7 19.4 R 926 – Tenagra II Observatory, Nogales MPS 386266
2011 06 26.42909 20 17 35.43 -05 52 58.6 19.1 R 926 – Tenagra II Observatory, Nogales MPS 386266
2011 06 26.44525 20 17 34.87 -05 52 56.9 19.0 R 926 – Tenagra II Observatory, Nogales MPS 386266
2011 06 26.52398 20 17 32.606 -05 52 49.58 19.6 r F51 – Pan-STARRS 1, Haleakala MPS 386266
2011 06 26.53339 20 17 32.281 -05 52 48.85 19.6 r F51 – Pan-STARRS 1, Haleakala MPS 386266
2011 06 28.36379 20 16 34.35 -05 50 38.9 19.4 V G96 – Mt. Lemmon Survey MPS 386266
2011 06 28.37116 20 16 34.10 -05 50 38.5 19.3 V G96 – Mt. Lemmon Survey MPS 386266
2011 06 28.37863 20 16 33.81 -05 50 38.0 19.3 V G96 – Mt. Lemmon Survey MPS 386266
2011 06 28.38607 20 16 33.56 -05 50 37.6 19.4 V G96 – Mt. Lemmon Survey MPS 386266
2011 06 30.51422 20 15 20.363 -05 48 55.16 19.9 g F51 – Pan-STARRS 1, Haleakala MPS 386545
2011 06 30.52411 20 15 19.980 -05 48 54.77 20.0 g F51 – Pan-STARRS 1, Haleakala MPS 386545
2012 09 26.40293 03 08 37.35 +14 43 40.7 21.7 V G96 – Mt. Lemmon Survey MPS 434029
2012 09 26.40803 03 08 37.28 +14 43 39.1 20.2 V G96 – Mt. Lemmon Survey MPS 434029
2012 09 26.41596 03 08 37.10 +14 43 37.2 21.4 V G96 – Mt. Lemmon Survey MPS 434029
2012 09 26.42313 03 08 36.96 +14 43 35.4 21.8 V G96 – Mt. Lemmon Survey MPS 434029
2012 10 22.27641 02 53 25.13 +12 35 02.2 21.7 V 691 – Steward Observatory, Kitt Peak-Spacewatch MPS 439344
2012 10 22.29408 02 53 24.29 +12 34 56.1 21.0 V 691 – Steward Observatory, Kitt Peak-Spacewatch MPS 439344
2012 10 22.31176 02 53 23.42 +12 34 50.5 21.2 V 691 – Steward Observatory, Kitt Peak-Spacewatch MPS 439344
2015 01 20.59984 12 56 28.424 -10 17 55.08 21.5 w F51 – Pan-STARRS 1, Haleakala MPS 566859
2015 01 20.61109 12 56 28.860 -10 17 57.29 21.5 w F51 – Pan-STARRS 1, Haleakala MPS 566859
2015 01 20.62236 12 56 29.297 -10 17 59.35 22.1 w F51 – Pan-STARRS 1, Haleakala MPS 566859
2015 01 20.63360 12 56 29.745 -10 18 01.83 21.4 w F51 – Pan-STARRS 1, Haleakala MPS 566859
2015 01 22.61048 12 57 47.900 -10 24 35.06 21.5 w F51 – Pan-STARRS 1, Haleakala MPS 569297
2015 01 22.62174 12 57 48.304 -10 24 37.16 21.6 w F51 – Pan-STARRS 1, Haleakala MPS 569297
